This is the latest recevied weather packets stored in our database for station/object KC1TWD. If no packets are shown the sender has not sent any weather packets the latest 1 day(s).
| Time | Temp. | Humidity | Pressure | Rain* | Wind** | Luminosity | Snow |
|---|---|---|---|---|---|---|---|
| 1778045916 | 16.11° C | 79% | 1008 hPa | 0 mm | - | - | - |
| 1778045615 | 16.11° C | 78% | 1008.4 hPa | 0 mm | - | - | - |
| 1778045313 | 16.11° C | 78% | 1008.3 hPa | 0 mm | - | - | - |
| 1778044102 | 16.67° C | 76% | 1008.2 hPa | 0 mm | - | - | - |
| 1778043496 | 16.67° C | 74% | 1008.4 hPa | 0 mm | - | - | - |
| 1778043193 | 16.11° C | 73% | 1008.4 hPa | 0 mm | - | - | - |
| 1778042890 | 16.11° C | 78% | 1008.4 hPa | 0 mm | - | - | - |
| 1778041379 | 16.11° C | 82% | 1008.8 hPa | 0 mm | - | - | - |
| 1778041077 | 16.67° C | 78% | 1008.6 hPa | 0 mm | - | - | - |
| 1778040471 | 16.67° C | 82% | 1008.5 hPa | 0 mm | - | - | - |
| 1778040168 | 16.67° C | 81% | 1008.5 hPa | 0 mm | - | - | - |
| 1778039258 | 16.67° C | 83% | 1008.3 hPa | 0 mm | - | - | - |
| 1778038956 | 16.67° C | 86% | 1008.4 hPa | 0 mm | - | - | - |
| 1778038653 | 16.67° C | 82% | 1008.3 hPa | 0 mm | - | - | - |
| 1778038350 | 16.67° C | 84% | 1008.3 hPa | 0 mm | - | - | - |
| 1778037743 | 16.67° C | 86% | 1008.4 hPa | 0 mm | - | - | - |
| 1778037440 | 16.67° C | 87% | 1008.2 hPa | 0 mm | - | - | - |
| 1778037137 | 16.67° C | 87% | 1008.2 hPa | 0 mm | - | - | - |
| 1778036836 | 16.11° C | 89% | 1008.2 hPa | 0 mm | - | - | - |
| 1778036533 | 16.11° C | 92% | 1008.3 hPa | 0 mm | - | - | - |
| 1778035926 | 16.11° C | 93% | 1008.1 hPa | 0 mm | - | - | - |
| 1778035623 | 16.11° C | 93% | 1008.4 hPa | 0 mm | - | - | - |
| 1778035016 | 15.56° C | 95% | 1008.2 hPa | 0 mm | - | - | - |
| 1778034713 | 15.56° C | 95% | 1008.1 hPa | 0 mm | - | - | - |
| 1778034410 | 15.56° C | 94% | 1008.1 hPa | 0 mm | - | - | - |
* Rain latest hour (hover to see other rain measurements)
** Current wind speed in m/s (hover to see current wind gust speed)